Retour au catalogue

STARLINK-35451

ActifCommunicationsVLEO
NORAD 66469·PAYLOAD·🇺🇸 United States

Lancé Nov 15, 2025 depuis Cape Canaveral Space Force Station

Loading…

Prochains Passages (prochaines 24 heures)

TLE

FraisSource: CelesTrak SupGP

Époque: Sep 14, 2026, 20:57 UTC

1 66469C 25262P   26257.87340278 -.00022957  00000+0 -83150-3 0  2572
2 66469  43.0026 307.4208 0001721 269.2661  87.2155 15.27588894    11

Suivez STARLINK-35451 en temps réel avec AllMySat

Download on the App Store